2019 RG2
ephemeris date magn radius delta ra dec elong phase
Today5 Sep 202631.42.228 AU1.652 AU18h16m-29°40'111.4°24.9°
2019 RG2 - 2026-09-05
astro.vanbuitenen.nl


 
-1 year
-1 month
-1 day
Now
+1 day
+1 month
+1 year

The interactive orbit chart above shows the body's path through the solar system and its position at the given date. Green and blue lines are shown perpendicular to the ecliptic plane: Green if the path is above the ecliptic plane, blue if it is below. (Left-click and drag to rotate the view; Right-click and drag to move the view; Use scroll wheel to zoom in our out.)

The orbital elements of 2019 RG2 are:

            e (Eccentricity)                : 0.7125209
            a (Semimajor axis)              : 1.8142279
            i (Inclination)                 : 6.34615
            Ω (Longitude of ascending node) : 345.75643
            ω (Argument of perihelion)      : 99.94330
            M (Mean anomaly)                : 254.54333
            Epoch                           : 2026 Jun 09

            L (Longitude of perihelion)     : 265.75980
            B (Latitude of perihelion)      : 6.25044
            P (Orbital period in years)     : 2.44            
        

The light curve chart below shows the estimated development of the minor planet's magnitude.


The all-sky chart below shows the path of the minor planet over the same period as the light curve. The current position is marked yellow.





The following chart shows the path of the minor planet in the next few days. The field of view is optimized for (~10x50) binoculars and finderscopes.




Ephemerides:
Date       Time       RA (2000)    DEC (2000)    delta   radius  elong  phase   PA    magn
2026-09-05 00:00 UT   18 16 49.4   -29 40 25     1.652    2.228  111.4   24.9    86   31.4 
2026-09-05 09:09 UT   18 16 40.7   -29 39 01     1.654    2.225  111.0   25.0    86   31.4 
2026-09-06 00:00 UT   18 16 27.3   -29 36 45     1.658    2.220  110.4   25.2    86   31.4 
2026-09-07 00:00 UT   18 16 07.6   -29 33 04     1.664    2.213  109.4   25.4    86   31.4 
2026-09-08 00:00 UT   18 15 50.6   -29 29 23     1.671    2.206  108.4   25.7    86   31.4 
2026-09-09 00:00 UT   18 15 36.0   -29 25 41     1.678    2.199  107.3   25.9    87   31.4 
2026-09-10 00:00 UT   18 15 23.9   -29 21 59     1.684    2.192  106.3   26.2    87   31.4 
2026-09-11 00:00 UT   18 15 14.3   -29 18 17     1.691    2.185  105.3   26.4    87   31.4 
2026-09-12 00:00 UT   18 15 07.2   -29 14 35     1.698    2.177  104.3   26.6    87   31.4 
2026-09-13 00:00 UT   18 15 02.5   -29 10 53     1.704    2.170  103.4   26.8    87   31.4 
2026-09-14 00:00 UT   18 15 00.2   -29 07 12     1.711    2.163  102.4   27.0    87   31.5 
2026-09-15 00:00 UT   18 15 00.2   -29 03 30     1.718    2.155  101.4   27.2    87   31.5 
2026-09-16 00:00 UT   18 15 02.7   -28 59 49     1.724    2.148  100.5   27.4    87   31.5 
2026-09-17 00:00 UT   18 15 07.4   -28 56 08     1.731    2.141   99.5   27.6    88   31.5 
2026-09-18 00:00 UT   18 15 14.5   -28 52 27     1.738    2.133   98.6   27.8    88   31.5 
2026-09-19 00:00 UT   18 15 23.9   -28 48 47     1.745    2.126   97.6   27.9    88   31.5 
2026-09-20 00:00 UT   18 15 35.4   -28 45 08     1.751    2.118   96.7   28.1    88   31.5 
2026-09-21 00:00 UT   18 15 49.2   -28 41 28     1.758    2.110   95.8   28.3    88   31.5 
2026-09-22 00:00 UT   18 16 05.2   -28 37 50     1.764    2.103   94.9   28.4    88   31.5 
2026-09-23 00:00 UT   18 16 23.4   -28 34 11     1.771    2.095   94.0   28.5    88   31.5 
2026-09-24 00:00 UT   18 16 43.7   -28 30 33     1.778    2.087   93.1   28.7    88   31.5 
2026-09-25 00:00 UT   18 17 06.1   -28 26 56     1.784    2.080   92.2   28.8    88   31.5 
2026-09-26 00:00 UT   18 17 30.5   -28 23 18     1.791    2.072   91.3   28.9    88   31.5 
2026-09-27 00:00 UT   18 17 57.0   -28 19 41     1.797    2.064   90.4   29.1    88   31.5 
2026-09-28 00:00 UT   18 18 25.6   -28 16 05     1.803    2.056   89.6   29.2    88   31.5 
2026-09-29 00:00 UT   18 18 56.1   -28 12 28     1.810    2.048   88.7   29.3    88   31.5 
2026-09-30 00:00 UT   18 19 28.6   -28 08 52     1.816    2.040   87.8   29.4    88   31.5 
2026-10-01 00:00 UT   18 20 03.1   -28 05 16     1.822    2.032   87.0   29.5    88   31.5 
2026-10-02 00:00 UT   18 20 39.5   -28 01 39     1.828    2.024   86.1   29.6    88   31.5 
2026-10-03 00:00 UT   18 21 17.8   -27 58 03     1.834    2.016   85.3   29.6    88   31.5 
2026-10-04 00:00 UT   18 21 58.0   -27 54 27     1.840    2.008   84.5   29.7    88   31.5 
2026-10-05 00:00 UT   18 22 40.0   -27 50 50     1.846    2.000   83.6   29.8    88   31.5 


    Terminology:
            
    delta:  distance between minor planet and earth in AU
    radius: distance between minor planet and sun in AU
    magn:   magnitude (brightness) estimate    
    ra:     right ascension in hours (24h = 360deg)
    dec:    declination in degrees
    elong:  elongation in degrees (angle sun-earth-minor planet)    
    phase:  phase angle in degrees (angle sun-minor planet-earth)        
    AU:     Astronomical Unit (mean distance between earth and sun: 149597870.7 km
    

Orbital elements provided by the MPC (Minor Planet Center).
Calculations by a modified version of AAPlus, a C# implementation of the AA+ project by PJ Naughter from the algorithms presented in the book "Astronomical Algorithms" by Jean Meeus.
NGC2000 dso catalog and star labels from VizieR as provided by the Strasbourg astronomical Data Center.
Tycho2 catalog from the ESO archive.